DELTA 1 DEB (YO), 167

Orbit data source: Space-Track

DELTA 1 DEB (YO), 167 is space debris in LEO originally from a launch on Wed, 12 Jul 1961 UTC launched from the Air Force Eastern Test Range (AFETR). Debris objects in space refer to the collection of defunct objects orbiting the Earth. Examples of debris include non-operational satellites, rocket bodies, and fragments generated from explosions, collisions, or faulty payload assembly.

Loading next visibility...
Identifier
167, 1961-017D
Orbit
LEO
Country
Flag of USUS
Related business
Manufacturer
RCA/East Windsor
Mission
Spacecraft
Bus & Motor
Unknown
Mass
~1 kg wet, ~1 kg dry
Launch date (UTC)
1961-07-12 (64 years ago)
Launch vehicle
Unknown
Launch site
Air Force Eastern Test Range (AFETR)
Object type
Payload
Rocket body
Debris
Shape & HBR
Unknown
Radar Cross Section
Small (<0.1 m²)

Expand to show TLE details & history
Last TLE update: 2 days ago

TLE from 2 days ago
0 DELTA 1 DEB (YO)
1 00167U 61017D   25257.15619863 -.00000050  00000-0  43172-4 0  9996
2 00167  47.8443 182.1450 0089974  60.4958 300.4862 14.23986146325339
Epoch: 2025-09-14T03:44Z
TLE epoch observation values (Epoch: 2025-09-14T03:44:55.561Z)
Latitude
-0.00005°
Longitude
132.5342°
Altitude
779.822 km
Speed
7.482 km/s
True Right ascension
12h 08m 34s
True Declination
0° 00' 00"
Sunlit
Object was in daylight at epoch
Visualization orbit readout
Latitude
Unknown
Longitude
Unknown
Altitude
Unknown
Speed
Unknown
Apparent Right ascension
Unknown
Apparent Declination
Unknown
Sunlit
N/A
Visualization observer readout
Local Sidereal Time
15:26:31
Azimuth
Unknown
Elevation
Unknown
Doppler factor
Unknown
Orbital elements
Apogee altitude
877.685 km
Perigee altitude
748.283 km
Semi-major axis
7,191.121 km
Eccentricity
0.009
Inclination
47.8443°
RAAN
182.145°
Arg. of periapsis
60.4958°
True anomaly
299.59265°
Mean anomaly
300.4862°
Eccentric anomaly
300.03993°
Mean motion
3.55917 °/min
Orbital period
101.15 mins
BSTAR
0.000043172
Loading maneuver chart data...
Computing Atmospheric mass density...
Loading historical data...
Loading historical data...
Loading historical data...
Loading historical data...
Loading historical data...
Loading historical data...
Loading historical data...
Other satellites on launch #17 in the year 1961 (1961-07-12 UTC)

Documentation

Showing up to 5 results
|